Simultaneous Nadir Overpasses (SNOs) Predictions

Prediction of SNOs between GOES-16 and AQUA Satellite Orbit:

Table of predicted SNOs for the next 14.0 days since TLE Epoch: 11/16/2018
Index Date Time (GOES-16) GOES-16 Lat,Lon AQUA Lat,Lon Distance(km) Time Diff (sec)
1 11/16/2018 18:50:52 0.00, -75.22 -0.81, -79.06 435.84 80
2 11/18/2018 06:17:17 0.00, -75.24 -0.92, -70.91 491.93 80
3 11/18/2018 18:38:41 -0.00, -75.23 -0.18, -76.10 98.94 80
4 11/20/2018 18:29:10 -0.00, -75.24 0.45, -73.15 238.45 80
5 11/21/2018 06:50:26 0.00, -75.26 0.65, -78.31 346.82 80
6 11/23/2018 06:38:15 0.00, -75.27 0.01, -75.35 9.21 80
7 11/25/2018 06:23:24 -0.00, -75.28 -0.62, -72.40 328.41 80
8 11/25/2018 18:44:48 0.00, -75.28 -0.46, -77.59 262.27 80
9 11/27/2018 18:35:16 0.01, -75.30 0.12, -74.62 75.73 80
10 11/29/2018 18:23:05 0.01, -75.32 0.77, -71.67 414.28 80
11 11/30/2018 06:44:21 -0.01, -75.34 0.28, -76.84 170.64 80




NCC Satellite Simultaneous Nadir Overpasses (SNOs) Prediction Service
